Location: Newark
(48.5156°N, 1.8989°W)
Time: 18:17:33
(UTC+00:00)

Transit 4A - Pass Details

Date: 30 November 2019
Orbit: 870 x 975 km, 66.8° (Epoch: 11 December)

Event Time Altitude Azimuth Distance (km) Brightness Sun altitude
Exits shadow 05:21:01 28° 227° (SW) 1,586 8.8 -21.7°
Drops below altitude 10° 05:24:45 10° 190° (S) 2,510 10.1 -21.1°
Sets 05:27:28 0° 180° (S) 3,443 11.0 -20.6°
